Torna al catalogo

STARLINK-32168

AttivoComunicazioniVLEO
NORAD 60335·PAYLOAD·🇺🇸 United States

Lanciato Aug 2, 2024 da Cape Canaveral Space Force Station

Loading…

Prossimi Passaggi (prossime 24 ore)

TLE

AggiornatoSource: CelesTrak SupGP

Epoca: Sep 14, 2026, 22:30 UTC

1 60335C 24136G   26257.93798611  .00047972  00000+0  14175-2 0  2574
2 60335  53.1579 275.8918 0001249  91.4354 127.4617 15.34362785    14

Traccia STARLINK-32168 in tempo reale con AllMySat

Download on the App Store